Погода в Сергеевке

Украина / Одесская область     46°01′41″N   30°22′12″E
темп.,
°C
ветер,
м/с
пор.,
м/с
влажн.,
%
обл.,
%
осадки,
мм/ч
давл.,
гПа
погр.,
м
23 октября, сб
сб2300:00+15зюз355998 0.0 101679
03:00+14зсз336189 0.0 101626
06:00+14с3457100 0.0 101651
09:00+15с3751100 0.0 1017197
12:00+13с2370100 0.3 1019123
15:00+14зсз136873 0.5 1019254
18:00+14ююв227030 0.0 101911
21:00+13ссв587289 0.1 1021228
24 октября, вс
вс2400:00+12ссв5859100 0.1 1022248
03:00+11ссз5946100 0.1 1024336
06:00+10с4845100 0.0 1025452
09:00+9с611494 0.0 1026710
12:00+12ссз810435 0.0 10271392
15:00+13ссз9103853 0.0 10272080
18:00+10ссз811465 0.0 1029832
21:00+8сз49505 0.0 1030279
25 октября, пн
пн2500:00+7ссз59585 0.0 1032315
03:00+5с46667 0.0 1032160
06:00+5с34705 0.0 1033106
09:00+6с35615 0.0 1034291
12:00+9ссв34445 0.0 10341207
15:00+10св33415 0.0 10331281
18:00+8в34570 0.0 103398
21:00+7в33550 0.0 103380
26 октября, вт
вт2600:00+7вюв33634 0.0 103275
03:00+7вюв23673 0.0 103265
06:00+7вюв22665 0.0 103163
09:00+9вюв36585 0.0 1030472
12:00+12юв66485 0.0 10301184
15:00+12юв55514 0.0 10281120
18:00+9вюв45622 0.0 1027134
21:00+8юв34632 0.0 102792
27 октября, ср
ср2700:00+8юв12610 0.0 102665
03:00+7сз11653 0.0 102661
06:00+6св11726 0.0 102555
09:00+9ссв1167100 0.0 102684
12:00+12с0255100 0.0 1026953
15:00+13ссз134987 0.0 10241149
18:00+10вюв226698 0.0 102542
21:00+9ююз227693 0.0 102527